| time (UTC) | temp F | wind direction | speed MPH | gust MPH | rain 1hr in | rain 24hr in | rain mn in | humidity % | barometer mb |
| 20260507175045 | 52 | 0 | 0.0 | 4.0 | 0.00 | 0.04 | 0.03 | 80 | 1017.2 |
| 20260507174558 | 52 | 0 | 0.0 | 5.0 | 0.00 | 0.04 | 0.03 | 79 | 1017.2 |
| 20260507174044 | 52 | 0 | 0.0 | 5.0 | 0.00 | 0.04 | 0.03 | 78 | 1017.2 |
| 20260507173543 | 52 | 0 | 1.0 | 6.0 | 0.00 | 0.04 | 0.03 | 78 | 1017.1 |
| 20260507173058 | 53 | 0 | 0.0 | 6.0 | 0.00 | 0.04 | 0.03 | 78 | 1017.2 |
| 20260507172548 | 53 | 0 | 1.0 | 6.0 | 0.00 | 0.04 | 0.03 | 79 | 1017.1 |
| 20260507172044 | 53 | 0 | 0.0 | 6.0 | 0.00 | 0.04 | 0.03 | 79 | 1017.0 |
| 20260507171559 | 53 | 0 | 0.0 | 6.0 | 0.00 | 0.04 | 0.03 | 79 | 1017.1 |
| 20260507171045 | 53 | 0 | 1.0 | 6.0 | 0.00 | 0.04 | 0.03 | 78 | 1016.9 |
| 20260507170547 | 54 | 40 | 0.0 | 6.0 | 0.00 | 0.04 | 0.03 | 79 | 1016.9 |
| 20260507170053 | 53 | 0 | 0.0 | 11.0 | 0.00 | 0.04 | 0.03 | 79 | 1017.0 |
| 20260507165543 | 53 | 0 | 0.0 | 11.0 | 0.00 | 0.05 | 0.03 | 78 | 1016.8 |
| 20260507165044 | 54 | 0 | 1.0 | 10.0 | 0.00 | 0.05 | 0.03 | 77 | 1016.8 |
| 20260507164551 | 54 | 0 | 0.0 | 10.0 | 0.00 | 0.05 | 0.03 | 76 | 1016.8 |
| 20260507164045 | 54 | 28 | 2.0 | 8.0 | 0.00 | 0.05 | 0.03 | 75 | 1016.7 |
| 20260507163544 | 55 | 43 | 1.0 | 8.0 | 0.00 | 0.05 | 0.03 | 75 | 1016.8 |
| 20260507163051 | 54 | 39 | 1.0 | 7.0 | 0.00 | 0.05 | 0.03 | 74 | 1016.8 |
| 20260507162545 | 54 | 0 | 0.0 | 4.0 | 0.00 | 0.05 | 0.03 | 74 | 1016.7 |
| 20260507162047 | 54 | 0 | 0.0 | 6.0 | 0.00 | 0.05 | 0.03 | 73 | 1016.9 |
| 20260507161608 | 55 | 0 | 0.0 | 6.0 | 0.00 | 0.05 | 0.03 | 72 | 1016.8 |
| 20260507161044 | 55 | 0 | 1.0 | 6.0 | 0.00 | 0.05 | 0.03 | 71 | 1016.8 |
| 20260507160545 | 55 | 0 | 0.0 | 2.0 | 0.00 | 0.05 | 0.03 | 65 | 1016.7 |
| 20260507160052 | 54 | 0 | 0.0 | 5.0 | 0.00 | 0.05 | 0.03 | 65 | 1016.7 |
| 20260507155543 | 54 | 0 | 1.0 | 10.0 | 0.00 | 0.06 | 0.03 | 68 | 1016.7 |
| 20260507155043 | 54 | 0 | 2.0 | 10.0 | 0.00 | 0.06 | 0.03 | 68 | 1016.7 |
| 20260507154553 | 54 | 18 | 0.0 | 10.0 | 0.00 | 0.06 | 0.03 | 68 | 1016.7 |
| 20260507154045 | 54 | 0 | 0.0 | 4.0 | 0.00 | 0.06 | 0.03 | 68 | 1016.7 |
| 20260507153546 | 54 | 0 | 0.0 | 7.0 | 0.00 | 0.06 | 0.03 | 69 | 1016.7 |
| 20260507153111 | 55 | 0 | 1.0 | 10.0 | 0.00 | 0.06 | 0.03 | 72 | 1016.6 |
| 20260507152544 | 55 | 0 | 0.0 | 10.0 | 0.00 | 0.06 | 0.03 | 70 | 1016.6 |
| 20260507152044 | 55 | 0 | 3.0 | 10.0 | 0.00 | 0.06 | 0.03 | 70 | 1016.6 |
| 20260507151559 | 55 | 0 | 1.0 | 9.0 | 0.00 | 0.06 | 0.03 | 72 | 1016.6 |
| 20260507151043 | 55 | 22 | 1.0 | 5.0 | 0.00 | 0.06 | 0.03 | 72 | 1016.5 |
| 20260507150545 | 55 | 0 | 0.0 | 5.0 | 0.00 | 0.06 | 0.03 | 71 | 1016.5 |
| 20260507150054 | 54 | 0 | 0.0 | 1.0 | 0.00 | 0.06 | 0.03 | 73 | 1016.6 |
| 20260507145543 | 55 | 0 | 0.0 | 8.0 | 0.00 | 0.08 | 0.03 | 72 | 1016.6 |
| 20260507145043 | 55 | 0 | 1.0 | 8.0 | 0.00 | 0.08 | 0.03 | 71 | 1016.6 |
| 20260507144552 | 55 | 0 | 0.0 | 8.0 | 0.00 | 0.08 | 0.03 | 72 | 1016.6 |
| 20260507144045 | 55 | 0 | 0.0 | 6.0 | 0.00 | 0.08 | 0.03 | 73 | 1016.6 |
| 20260507143544 | 55 | 0 | 0.0 | 6.0 | 0.00 | 0.08 | 0.03 | 71 | 1016.6 |
| 20260507143055 | 55 | 329 | 0.0 | 8.0 | 0.00 | 0.08 | 0.03 | 70 | 1016.5 |
| 20260507142544 | 55 | 0 | 0.0 | 8.0 | 0.00 | 0.08 | 0.03 | 73 | 1016.5 |
| 20260507142043 | 55 | 0 | 2.0 | 8.0 | 0.00 | 0.08 | 0.03 | 71 | 1016.5 |
| 20260507141549 | 56 | 0 | 0.0 | 8.0 | 0.00 | 0.08 | 0.03 | 69 | 1016.6 |
| 20260507141044 | 56 | 0 | 1.0 | 9.0 | 0.00 | 0.08 | 0.03 | 72 | 1016.7 |
| 20260507140544 | 55 | 0 | 0.0 | 9.0 | 0.00 | 0.08 | 0.03 | 73 | 1016.5 |
| 20260507140053 | 55 | 9 | 0.0 | 5.0 | 0.00 | 0.08 | 0.03 | 70 | 1016.7 |
| 20260507135547 | 55 | 0 | 1.0 | 5.0 | 0.00 | 0.12 | 0.03 | 69 | 1016.6 |
| 20260507135047 | 55 | 0 | 0.0 | 5.0 | 0.00 | 0.12 | 0.03 | 72 | 1016.6 |
| 20260507134553 | 55 | 0 | 0.0 | 7.0 | 0.00 | 0.12 | 0.03 | 72 | 1016.7 |
| 20260507134043 | 56 | 0 | 1.0 | 7.0 | 0.00 | 0.12 | 0.03 | 74 | 1016.7 |
| 20260507133545 | 55 | 0 | 0.0 | 8.0 | 0.00 | 0.12 | 0.03 | 73 | 1016.6 |
| 20260507133056 | 55 | 313 | 0.0 | 8.0 | 0.00 | 0.12 | 0.03 | 75 | 1016.5 |
| 20260507132545 | 54 | 0 | 0.0 | 6.0 | 0.00 | 0.12 | 0.03 | 76 | 1016.5 |
| 20260507132044 | 54 | 0 | 0.0 | 8.0 | 0.00 | 0.12 | 0.03 | 78 | 1016.4 |
| 20260507131551 | 54 | 0 | 2.0 | 8.0 | 0.00 | 0.12 | 0.03 | 77 | 1016.5 |
| 20260507131046 | 55 | 0 | 0.0 | 8.0 | 0.00 | 0.12 | 0.03 | 78 | 1016.4 |
| 20260507130544 | 54 | 349 | 0.0 | 9.0 | 0.00 | 0.12 | 0.03 | 76 | 1016.4 |
| 20260507130100 | 55 | 0 | 2.0 | 9.0 | 0.00 | 0.12 | 0.03 | 76 | 1016.4 |
| 20260507125543 | 55 | 0 | 1.0 | 6.0 | 0.00 | 0.14 | 0.03 | 71 | 1016.3 |
| 20260507125043 | 54 | 0 | 0.0 | 0.0 | 0.00 | 0.14 | 0.03 | 74 | 1016.4 |
| 20260507124618 | 55 | 0 | 0.0 | 8.0 | 0.00 | 0.14 | 0.03 | 73 | 1016.3 |
| 20260507124046 | 55 | 0 | 0.0 | 8.0 | 0.00 | 0.14 | 0.03 | 74 | 1016.4 |
| 20260507123546 | 55 | 355 | 0.0 | 8.0 | 0.00 | 0.14 | 0.03 | 76 | 1016.4 |
| 20260507123105 | 55 | 0 | 2.0 | 6.0 | 0.00 | 0.14 | 0.03 | 77 | 1016.3 |
| 20260507122545 | 54 | 0 | 0.0 | 5.0 | 0.00 | 0.14 | 0.03 | 77 | 1016.2 |
| 20260507122045 | 54 | 0 | 0.0 | 5.0 | 0.00 | 0.14 | 0.03 | 77 | 1016.3 |
| 20260507121558 | 54 | 0 | 0.0 | 11.0 | 0.00 | 0.14 | 0.03 | 78 | 1016.2 |
| 20260507121042 | 55 | 0 | 1.0 | 11.0 | 0.00 | 0.14 | 0.03 | 76 | 1016.3 |
| 20260507120547 | 56 | 348 | 2.0 | 11.0 | 0.00 | 0.14 | 0.03 | 76 | 1016.2 |
| 20260507120055 | 55 | 0 | 0.0 | 6.0 | 0.00 | 0.14 | 0.03 | 79 | 1016.3 |
| 20260507115546 | 54 | 0 | 0.0 | 6.0 | 0.00 | 0.16 | 0.03 | 77 | 1016.3 |
| 20260507115045 | 53 | 0 | 0.0 | 4.0 | 0.00 | 0.16 | 0.03 | 80 | 1016.3 |
| 20260507114555 | 53 | 0 | 0.0 | 6.0 | 0.00 | 0.16 | 0.03 | 80 | 1016.4 |
| 20260507114044 | 53 | 0 | 1.0 | 6.0 | 0.00 | 0.16 | 0.03 | 82 | 1016.4 |
| 20260507113552 | 53 | 351 | 1.0 | 9.0 | 0.00 | 0.16 | 0.03 | 83 | 1016.4 |
| 20260507113051 | 52 | 0 | 3.0 | 9.0 | 0.00 | 0.16 | 0.03 | 83 | 1016.3 |
| 20260507112549 | 52 | 0 | 2.0 | 7.0 | 0.00 | 0.16 | 0.03 | 81 | 1016.2 |
| 20260507112042 | 53 | 0 | 0.0 | 6.0 | 0.00 | 0.16 | 0.03 | 81 | 1016.2 |
| 20260507111551 | 53 | 329 | 1.0 | 6.0 | 0.00 | 0.16 | 0.03 | 80 | 1016.2 |
| 20260507111042 | 52 | 0 | 0.0 | 4.0 | 0.00 | 0.16 | 0.03 | 81 | 1016.2 |
| 20260507110542 | 53 | 0 | 0.0 | 5.0 | 0.00 | 0.16 | 0.03 | 81 | 1016.2 |
| 20260507110051 | 53 | 0 | 1.0 | 5.0 | 0.00 | 0.16 | 0.03 | 78 | 1016.2 |
| 20260507105541 | 55 | 0 | 0.0 | 1.0 | 0.00 | 0.18 | 0.03 | 79 | 1016.2 |
| 20260507105049 | 54 | 0 | 0.0 | 1.0 | 0.00 | 0.18 | 0.03 | 80 | 1016.2 |
| 20260507104555 | 54 | 0 | 0.0 | 2.0 | 0.00 | 0.18 | 0.03 | 82 | 1016.2 |
| 20260507104041 | 54 | 0 | 0.0 | 2.0 | 0.00 | 0.18 | 0.03 | 80 | 1016.1 |
| 20260507103544 | 53 | 0 | 0.0 | 2.0 | 0.00 | 0.18 | 0.03 | 83 | 1016.1 |
| 20260507103052 | 52 | 339 | 0.0 | 0.0 | 0.00 | 0.18 | 0.03 | 85 | 1016.1 |
| 20260507102542 | 51 | 0 | 0.0 | 0.0 | 0.00 | 0.18 | 0.03 | 84 | 1016.0 |
| 20260507102043 | 51 | 0 | 0.0 | 0.0 | 0.00 | 0.18 | 0.03 | 83 | 1016.0 |
| 20260507101558 | 51 | 0 | 0.0 | 0.0 | 0.00 | 0.18 | 0.03 | 83 | 1016.0 |
| 20260507101042 | 52 | 0 | 0.0 | 0.0 | 0.00 | 0.18 | 0.03 | 86 | 1015.9 |
| 20260507100542 | 50 | 0 | 0.0 | 0.0 | 0.00 | 0.18 | 0.03 | 85 | 1015.9 |
| 20260507100058 | 51 | 0 | 0.0 | 5.0 | 0.00 | 0.18 | 0.03 | 87 | 1015.9 |
| 20260507095542 | 50 | 0 | 0.0 | 5.0 | 0.00 | 0.20 | 0.03 | 92 | 1016.0 |
| 20260507095041 | 49 | 0 | 0.0 | 6.0 | 0.00 | 0.20 | 0.03 | 91 | 1015.9 |
| 20260507094553 | 49 | 5 | 1.0 | 6.0 | 0.00 | 0.20 | 0.03 | 91 | 1015.9 |
| 20260507094043 | 48 | 5 | 0.0 | 4.0 | 0.00 | 0.20 | 0.03 | 91 | 1015.8 |
| 20260507093546 | 48 | 0 | 0.0 | 5.0 | 0.00 | 0.20 | 0.03 | 91 | 1015.8 |
| 20260507093050 | 49 | 0 | 1.0 | 5.0 | 0.00 | 0.20 | 0.03 | 91 | 1015.9 |
| 20260507092546 | 49 | 0 | 0.0 | 5.0 | 0.00 | 0.20 | 0.03 | 92 | 1015.7 |
| 20260507092041 | 49 | 0 | 0.0 | 7.0 | 0.00 | 0.20 | 0.03 | 92 | 1015.7 |
| 20260507091550 | 49 | 5 | 0.0 | 7.0 | 0.00 | 0.20 | 0.03 | 94 | 1015.6 |
| 20260507091045 | 48 | 0 | 0.0 | 9.0 | 0.00 | 0.20 | 0.03 | 93 | 1015.6 |
| 20260507090544 | 49 | 0 | 0.0 | 9.0 | 0.00 | 0.20 | 0.03 | 94 | 1015.5 |
| 20260507090051 | 49 | 0 | 2.0 | 9.0 | 0.00 | 0.20 | 0.03 | 94 | 1015.5 |
| 20260507085542 | 49 | 344 | 0.0 | 6.0 | 0.00 | 0.21 | 0.03 | 94 | 1015.3 |
| 20260507085048 | 49 | 342 | 0.0 | 5.0 | 0.00 | 0.21 | 0.03 | 95 | 1015.4 |
| 20260507084551 | 49 | 0 | 0.0 | 5.0 | 0.00 | 0.21 | 0.03 | 96 | 1015.4 |
| 20260507084045 | 48 | 0 | 0.0 | 6.0 | 0.00 | 0.21 | 0.03 | 96 | 1015.3 |
| 20260507083544 | 48 | 0 | 0.0 | 6.0 | 0.00 | 0.21 | 0.03 | 96 | 1015.3 |
| 20260507083106 | 48 | 0 | 0.0 | 5.0 | 0.00 | 0.21 | 0.03 | 96 | 1015.3 |
| 20260507082541 | 48 | 0 | 0.0 | 4.0 | 0.00 | 0.21 | 0.03 | 96 | 1015.3 |
| 20260507082049 | 48 | 0 | 0.0 | 3.0 | 0.00 | 0.21 | 0.03 | 96 | 1015.3 |
| 20260507081558 | 48 | 0 | 0.0 | 3.0 | 0.00 | 0.21 | 0.03 | 96 | 1015.2 |
| 20260507081045 | 48 | 0 | 0.0 | 3.0 | 0.00 | 0.21 | 0.03 | 97 | 1015.2 |
| 20260507080542 | 48 | 0 | 0.0 | 1.0 | 0.00 | 0.21 | 0.03 | 97 | 1015.1 |
| 20260507080058 | 48 | 0 | 0.0 | 3.0 | 0.00 | 0.21 | 0.03 | 97 | 1015.1 |
| 20260507075547 | 48 | 0 | 0.0 | 3.0 | 0.00 | 0.22 | 0.03 | 97 | 1015.1 |
| 20260507075045 | 47 | 0 | 0.0 | 3.0 | 0.00 | 0.22 | 0.03 | 97 | 1015.0 |
| 20260507074558 | 48 | 0 | 0.0 | 3.0 | 0.00 | 0.22 | 0.03 | 97 | 1014.9 |
| 20260507074045 | 47 | 0 | 0.0 | 3.0 | 0.00 | 0.22 | 0.03 | 97 | 1014.9 |
| 20260507073542 | 46 | 0 | 0.0 | 1.0 | 0.00 | 0.22 | 0.03 | 97 | 1015.0 |
| 20260507073103 | 47 | 0 | 0.0 | 0.0 | 0.00 | 0.22 | 0.03 | 97 | 1014.8 |
| 20260507072545 | 47 | 0 | 0.0 | 0.0 | 0.00 | 0.22 | 0.03 | 97 | 1014.9 |
| 20260507072048 | 47 | 0 | 0.0 | 0.0 | 0.00 | 0.22 | 0.03 | 97 | 1014.8 |
| 20260507071556 | 47 | 0 | 0.0 | 0.0 | 0.00 | 0.22 | 0.03 | 97 | 1014.9 |
| 20260507071045 | 46 | 0 | 0.0 | 0.0 | 0.00 | 0.22 | 0.03 | 97 | 1014.7 |
| 20260507070545 | 46 | 0 | 0.0 | 0.0 | 0.00 | 0.22 | 0.03 | 97 | 1014.6 |
| 20260507070055 | 46 | 0 | 0.0 | 0.0 | 0.00 | 0.22 | 0.03 | 97 | 1014.5 |
| 20260507065545 | 46 | 0 | 0.0 | 0.0 | 0.00 | 0.22 | 0.03 | 97 | 1014.5 |
| 20260507065042 | 46 | 0 | 0.0 | 0.0 | 0.00 | 0.22 | 0.03 | 97 | 1014.5 |
| 20260507064557 | 46 | 0 | 0.0 | 0.0 | 0.00 | 0.22 | 0.03 | 97 | 1014.5 |
| 20260507064048 | 46 | 0 | 0.0 | 0.0 | 0.00 | 0.22 | 0.03 | 97 | 1014.4 |
| 20260507063543 | 46 | 0 | 0.0 | 0.0 | 0.00 | 0.22 | 0.03 | 97 | 1014.3 |
| 20260507063053 | 46 | 0 | 0.0 | 0.0 | 0.00 | 0.22 | 0.03 | 97 | 1014.3 |
| 20260507062545 | 46 | 0 | 0.0 | 0.0 | 0.00 | 0.22 | 0.03 | 97 | 1014.2 |
| 20260507062042 | 46 | 0 | 0.0 | 0.0 | 0.00 | 0.22 | 0.03 | 97 | 1014.2 |
| 20260507061559 | 46 | 0 | 0.0 | 0.0 | 0.00 | 0.22 | 0.03 | 97 | 1014.1 |
| 20260507061043 | 46 | 0 | 0.0 | 0.0 | 0.00 | 0.22 | 0.03 | 97 | 1014.0 |
| 20260507060544 | 46 | 0 | 0.0 | 0.0 | 0.00 | 0.22 | 0.03 | 97 | 1014.1 |
| 20260507060052 | 46 | 0 | 0.0 | 0.0 | 0.00 | 0.22 | 0.03 | 97 | 1014.0 |
| 20260507055542 | 46 | 0 | 0.0 | 0.0 | 0.00 | 0.24 | 0.03 | 97 | 1013.9 |
| 20260507055042 | 46 | 0 | 0.0 | 0.0 | 0.00 | 0.24 | 0.03 | 97 | 1014.0 |
| 20260507054551 | 46 | 0 | 0.0 | 0.0 | 0.00 | 0.24 | 0.03 | 97 | 1013.9 |
| 20260507054042 | 46 | 0 | 0.0 | 3.0 | 0.00 | 0.24 | 0.03 | 97 | 1013.8 |
| 20260507053542 | 46 | 0 | 0.0 | 3.0 | 0.00 | 0.24 | 0.03 | 97 | 1013.8 |
| 20260507053052 | 46 | 0 | 0.0 | 1.0 | 0.00 | 0.24 | 0.03 | 97 | 1013.7 |
| 20260507052542 | 46 | 0 | 0.0 | 0.0 | 0.00 | 0.24 | 0.03 | 97 | 1013.7 |
| 20260507052045 | 46 | 0 | 0.0 | 0.0 | 0.00 | 0.24 | 0.03 | 97 | 1013.7 |
| 20260507051558 | 45 | 0 | 0.0 | 0.0 | 0.00 | 0.24 | 0.03 | 97 | 1013.5 |
| 20260507051042 | 45 | 0 | 0.0 | 0.0 | 0.00 | 0.24 | 0.03 | 97 | 1013.5 |
| 20260507050546 | 45 | 0 | 0.0 | 0.0 | 0.00 | 0.24 | 0.03 | 97 | 1013.4 |
| 20260507050057 | 45 | 0 | 0.0 | 0.0 | 0.00 | 0.24 | 0.03 | 97 | 1013.3 |
| 20260507045542 | 45 | 0 | 0.0 | 0.0 | 0.00 | 0.25 | 0.03 | 97 | 1013.3 |
| 20260507045043 | 45 | 0 | 0.0 | 0.0 | 0.00 | 0.25 | 0.03 | 97 | 1013.3 |
| 20260507044609 | 45 | 0 | 0.0 | 0.0 | 0.00 | 0.25 | 0.03 | 97 | 1013.2 |
| 20260507044047 | 45 | 0 | 0.0 | 0.0 | 0.00 | 0.25 | 0.03 | 97 | 1013.1 |
| 20260507043547 | 45 | 0 | 0.0 | 0.0 | 0.00 | 0.25 | 0.03 | 97 | 1013.0 |
| 20260507043052 | 45 | 0 | 0.0 | 0.0 | 0.00 | 0.25 | 0.03 | 97 | 1013.0 |
| 20260507042547 | 45 | 0 | 0.0 | 1.0 | 0.00 | 0.25 | 0.03 | 97 | 1012.9 |
| 20260507042047 | 45 | 0 | 0.0 | 1.0 | 0.00 | 0.25 | 0.03 | 97 | 1012.9 |
| 20260507041551 | 45 | 0 | 0.0 | 0.0 | 0.00 | 0.25 | 0.03 | 97 | 1012.9 |
| 20260507041050 | 45 | 0 | 0.0 | 0.0 | 0.00 | 0.25 | 0.03 | 97 | 1013.0 |
| 20260507040547 | 45 | 0 | 0.0 | 0.0 | 0.00 | 0.25 | 0.03 | 97 | 1013.0 |
| 20260507040058 | 45 | 0 | 0.0 | 0.0 | 0.00 | 0.25 | 0.03 | 97 | 1012.8 |
| 20260507035547 | 45 | 0 | 0.0 | 0.0 | 0.00 | 0.26 | 0.03 | 97 | 1012.8 |
| 20260507035047 | 45 | 0 | 0.0 | 0.0 | 0.00 | 0.26 | 0.03 | 97 | 1012.8 |
| 20260507034549 | 45 | 0 | 0.0 | 0.0 | 0.00 | 0.26 | 0.03 | 97 | 1012.7 |
| 20260507034047 | 45 | 0 | 0.0 | 0.0 | 0.00 | 0.26 | 0.03 | 97 | 1012.8 |
| 20260507033547 | 45 | 0 | 0.0 | 0.0 | 0.00 | 0.26 | 0.03 | 97 | 1012.8 |
| 20260507033055 | 45 | 0 | 0.0 | 0.0 | 0.00 | 0.26 | 0.03 | 97 | 1012.7 |
| 20260507032547 | 45 | 0 | 0.0 | 0.0 | 0.00 | 0.26 | 0.03 | 97 | 1012.7 |
| 20260507032050 | 45 | 0 | 0.0 | 0.0 | 0.00 | 0.26 | 0.03 | 97 | 1012.7 |
| 20260507031557 | 45 | 0 | 0.0 | 0.0 | 0.00 | 0.26 | 0.03 | 97 | 1012.7 |
| 20260507031049 | 45 | 0 | 0.0 | 0.0 | 0.00 | 0.26 | 0.03 | 97 | 1012.6 |
| 20260507030546 | 45 | 0 | 0.0 | 0.0 | 0.00 | 0.26 | 0.03 | 97 | 1012.5 |
| 20260507030054 | 45 | 0 | 0.0 | 0.0 | 0.00 | 0.26 | 0.03 | 97 | 1012.5 |
| 20260507025549 | 45 | 0 | 0.0 | 0.0 | 0.00 | 0.29 | 0.03 | 97 | 1012.5 |
| 20260507025050 | 45 | 0 | 0.0 | 0.0 | 0.00 | 0.29 | 0.03 | 97 | 1012.4 |
| 20260507024614 | 45 | 0 | 0.0 | 0.0 | 0.00 | 0.29 | 0.03 | 97 | 1012.5 |
| 20260507024047 | 45 | 0 | 0.0 | 0.0 | 0.00 | 0.29 | 0.03 | 97 | 1012.5 |
| 20260507023552 | 45 | 0 | 0.0 | 0.0 | 0.00 | 0.29 | 0.03 | 97 | 1012.5 |
| 20260507023055 | 45 | 0 | 0.0 | 0.0 | 0.00 | 0.29 | 0.03 | 97 | 1012.4 |
| 20260507022549 | 45 | 0 | 0.0 | 0.0 | 0.00 | 0.29 | 0.03 | 97 | 1012.4 |
| 20260507022043 | 45 | 0 | 0.0 | 0.0 | 0.00 | 0.29 | 0.03 | 97 | 1012.3 |
| 20260507021601 | 45 | 0 | 0.0 | 0.0 | 0.00 | 0.29 | 0.03 | 97 | 1012.3 |
| 20260507021046 | 45 | 0 | 0.0 | 0.0 | 0.00 | 0.29 | 0.03 | 97 | 1012.3 |
| 20260507020547 | 45 | 0 | 0.0 | 0.0 | 0.00 | 0.29 | 0.03 | 97 | 1012.4 |
| 20260507020107 | 45 | 0 | 0.0 | 0.0 | 0.01 | 0.29 | 0.03 | 97 | 1012.2 |
| 20260507015546 | 45 | 0 | 0.0 | 0.0 | 0.00 | 0.31 | 0.02 | 97 | 1012.3 |
| 20260507015047 | 45 | 0 | 0.0 | 0.0 | 0.00 | 0.31 | 0.02 | 97 | 1012.2 |
| 20260507014607 | 45 | 0 | 0.0 | 0.0 | 0.00 | 0.31 | 0.02 | 97 | 1012.2 |
| 20260507014047 | 45 | 0 | 0.0 | 0.0 | 0.00 | 0.31 | 0.02 | 97 | 1012.1 |
| 20260507013549 | 45 | 0 | 0.0 | 0.0 | 0.00 | 0.31 | 0.02 | 97 | 1012.1 |
| 20260507013054 | 45 | 0 | 0.0 | 0.0 | 0.00 | 0.31 | 0.02 | 97 | 1012.2 |
| 20260507012546 | 45 | 0 | 0.0 | 0.0 | 0.01 | 0.31 | 0.02 | 97 | 1012.2 |
| 20260507012046 | 45 | 0 | 0.0 | 0.0 | 0.01 | 0.31 | 0.02 | 97 | 1012.1 |
| 20260507011549 | 45 | 0 | 0.0 | 0.0 | 0.01 | 0.31 | 0.02 | 97 | 1012.1 |
| 20260507011045 | 45 | 0 | 0.0 | 4.0 | 0.01 | 0.31 | 0.02 | 97 | 1012.1 |
| 20260507010546 | 45 | 0 | 0.0 | 4.0 | 0.01 | 0.31 | 0.02 | 97 | 1012.1 |
| 20260507010054 | 45 | 0 | 0.0 | 1.0 | 0.01 | 0.30 | 0.01 | 97 | 1012.1 |
| 20260507005546 | 45 | 0 | 0.0 | 1.0 | 0.01 | 0.37 | 0.01 | 97 | 1012.1 |
| 20260507005043 | 45 | 0 | 0.0 | 5.0 | 0.01 | 0.37 | 0.01 | 97 | 1012.0 |
| 20260507004557 | 45 | 0 | 0.0 | 5.0 | 0.01 | 0.37 | 0.01 | 97 | 1011.9 |
| 20260507004046 | 45 | 0 | 0.0 | 4.0 | 0.01 | 0.37 | 0.01 | 97 | 1012.0 |
| 20260507003542 | 45 | 0 | 0.0 | 0.0 | 0.01 | 0.37 | 0.01 | 97 | 1011.8 |
| 20260507003056 | 45 | 0 | 0.0 | 5.0 | 0.01 | 0.37 | 0.01 | 97 | 1011.9 |
| 20260507002547 | 45 | 0 | 0.0 | 5.0 | 0.00 | 0.36 | 0.00 | 97 | 1011.9 |
| 20260507002045 | 45 | 0 | 0.0 | 3.0 | 0.00 | 0.36 | 0.00 | 97 | 1011.9 |
| 20260507001558 | 45 | 0 | 0.0 | 3.0 | 0.00 | 0.36 | 0.00 | 97 | 1011.9 |
| 20260507001046 | 45 | 0 | 0.0 | 6.0 | 0.00 | 0.36 | 0.00 | 97 | 1011.9 |
| 20260507000547 | 45 | 0 | 0.0 | 6.0 | 0.00 | 0.36 | 0.00 | 97 | 1011.9 |
| 20260507000053 | 45 | 0 | 0.0 | 6.0 | 0.00 | 0.35 | 0.00 | 97 | 1012.0 |
| 20260506235546 | 45 | 0 | 0.0 | 0.0 | 0.00 | 0.40 | 0.00 | 97 | 1011.8 |
| 20260506235048 | 45 | 0 | 0.0 | 1.0 | 0.00 | 0.40 | 0.00 | 96 | 1011.8 |
| 20260506234601 | 46 | 0 | 0.0 | 2.0 | 0.00 | 0.40 | 0.00 | 97 | 1011.9 |
| 20260506234046 | 45 | 0 | 0.0 | 2.0 | 0.00 | 0.40 | 0.00 | 97 | 1011.7 |
| 20260506233549 | 46 | 0 | 0.0 | 2.0 | 0.00 | 0.40 | 0.00 | 97 | 1011.8 |
| 20260506233058 | 46 | 0 | 0.0 | 2.0 | 0.00 | 0.40 | 0.00 | 97 | 1011.8 |
| 20260506232546 | 46 | 0 | 0.0 | 2.0 | 0.00 | 0.40 | 0.00 | 97 | 1011.8 |
| 20260506232048 | 46 | 0 | 0.0 | 1.0 | 0.00 | 0.40 | 0.00 | 97 | 1011.7 |
| 20260506231559 | 46 | 0 | 0.0 | 1.0 | 0.00 | 0.40 | 0.00 | 97 | 1011.7 |
| 20260506231048 | 46 | 0 | 0.0 | 1.0 | 0.00 | 0.40 | 0.00 | 97 | 1011.8 |
| 20260506230546 | 46 | 0 | 0.0 | 1.0 | 0.00 | 0.40 | 0.00 | 97 | 1011.6 |
| 20260506230058 | 46 | 0 | 0.0 | 0.0 | 0.00 | 0.40 | 0.00 | 97 | 1011.6 |
| 20260506225547 | 46 | 0 | 0.0 | 2.0 | 0.00 | 0.48 | 0.00 | 97 | 1011.6 |
| 20260506225046 | 46 | 0 | 0.0 | 2.0 | 0.00 | 0.48 | 0.00 | 97 | 1011.6 |
| 20260506224556 | 46 | 0 | 0.0 | 0.0 | 0.00 | 0.48 | 0.00 | 97 | 1011.6 |
| 20260506224045 | 46 | 0 | 0.0 | 0.0 | 0.00 | 0.48 | 0.00 | 97 | 1011.5 |
| 20260506223544 | 46 | 0 | 0.0 | 0.0 | 0.00 | 0.48 | 0.00 | 97 | 1011.4 |
| 20260506223057 | 46 | 0 | 0.0 | 0.0 | 0.00 | 0.48 | 0.00 | 97 | 1011.4 |
| 20260506222546 | 46 | 0 | 0.0 | 0.0 | 0.00 | 0.48 | 0.00 | 97 | 1011.3 |
| 20260506222046 | 46 | 0 | 0.0 | 0.0 | 0.00 | 0.48 | 0.00 | 97 | 1011.3 |
| 20260506221554 | 46 | 0 | 0.0 | 4.0 | 0.00 | 0.48 | 0.00 | 97 | 1011.3 |
| 20260506221122 | 46 | 0 | 0.0 | 4.0 | 0.00 | 0.48 | 0.00 | 97 | 1011.3 |
| 20260506220547 | 46 | 0 | 0.0 | 4.0 | 0.00 | 0.48 | 0.00 | 97 | 1011.2 |
| 20260506220055 | 46 | 296 | 0.0 | 1.0 | 0.00 | 0.48 | 0.00 | 97 | 1011.3 |
| 20260506215546 | 46 | 0 | 0.0 | 0.0 | 0.00 | 0.53 | 0.48 | 97 | 1011.2 |
| 20260506215048 | 46 | 0 | 0.0 | 0.0 | 0.00 | 0.53 | 0.48 | 97 | 1011.0 |
| 20260506214553 | 46 | 0 | 0.0 | 0.0 | 0.00 | 0.53 | 0.48 | 97 | 1011.2 |
| 20260506214047 | 46 | 0 | 0.0 | 0.0 | 0.00 | 0.53 | 0.48 | 97 | 1011.1 |
| 20260506213546 | 46 | 0 | 0.0 | 0.0 | 0.00 | 0.53 | 0.48 | 97 | 1011.2 |
| 20260506213113 | 46 | 0 | 0.0 | 0.0 | 0.00 | 0.53 | 0.48 | 97 | 1011.1 |
| 20260506212546 | 46 | 0 | 0.0 | 0.0 | 0.00 | 0.53 | 0.48 | 97 | 1011.2 |
| 20260506212046 | 46 | 0 | 0.0 | 0.0 | 0.00 | 0.53 | 0.48 | 97 | 1011.2 |
| 20260506211604 | 46 | 0 | 0.0 | 0.0 | 0.00 | 0.53 | 0.48 | 97 | 1011.1 |
| 20260506211046 | 46 | 0 | 0.0 | 0.0 | 0.00 | 0.53 | 0.48 | 97 | 1011.2 |
| 20260506210545 | 46 | 0 | 0.0 | 0.0 | 0.00 | 0.53 | 0.48 | 97 | 1011.1 |
| 20260506210056 | 46 | 0 | 0.0 | 0.0 | 0.00 | 0.53 | 0.48 | 96 | 1011.0 |
| 20260506205545 | 46 | 0 | 0.0 | 0.0 | 0.00 | 0.57 | 0.48 | 97 | 1011.0 |
| 20260506205044 | 46 | 0 | 0.0 | 0.0 | 0.00 | 0.57 | 0.48 | 97 | 1011.1 |
| 20260506204556 | 46 | 0 | 0.0 | 0.0 | 0.00 | 0.57 | 0.48 | 97 | 1011.0 |
| 20260506204046 | 46 | 0 | 0.0 | 0.0 | 0.00 | 0.57 | 0.48 | 97 | 1011.0 |
| 20260506203548 | 46 | 0 | 0.0 | 0.0 | 0.00 | 0.57 | 0.48 | 97 | 1010.9 |
| 20260506203052 | 46 | 0 | 0.0 | 0.0 | 0.00 | 0.57 | 0.48 | 96 | 1010.9 |
| 20260506202547 | 46 | 0 | 0.0 | 0.0 | 0.00 | 0.57 | 0.48 | 96 | 1010.8 |
| 20260506202049 | 46 | 0 | 0.0 | 0.0 | 0.00 | 0.57 | 0.48 | 96 | 1010.9 |
| 20260506201601 | 46 | 0 | 0.0 | 0.0 | 0.00 | 0.57 | 0.48 | 96 | 1010.9 |
| 20260506201048 | 46 | 0 | 0.0 | 0.0 | 0.00 | 0.57 | 0.48 | 96 | 1010.8 |
| 20260506200546 | 46 | 0 | 0.0 | 0.0 | 0.00 | 0.57 | 0.48 | 96 | 1010.8 |
| 20260506200059 | 46 | 0 | 0.0 | 0.0 | 0.00 | 0.56 | 0.47 | 96 | 1010.8 |
| 20260506195547 | 46 | 0 | 0.0 | 1.0 | 0.00 | 0.60 | 0.47 | 96 | 1010.7 |
| 20260506195046 | 46 | 0 | 0.0 | 2.0 | 0.00 | 0.60 | 0.47 | 96 | 1010.7 |
| 20260506194609 | 46 | 0 | 0.0 | 2.0 | 0.00 | 0.60 | 0.47 | 96 | 1010.6 |
| 20260506194046 | 46 | 0 | 0.0 | 1.0 | 0.00 | 0.60 | 0.47 | 96 | 1010.6 |
| 20260506193547 | 46 | 0 | 0.0 | 4.0 | 0.00 | 0.60 | 0.47 | 96 | 1010.7 |
| 20260506193054 | 46 | 0 | 0.0 | 4.0 | 0.00 | 0.60 | 0.47 | 96 | 1010.5 |
| 20260506192551 | 46 | 0 | 0.0 | 4.0 | 0.00 | 0.60 | 0.47 | 96 | 1010.5 |
| 20260506192045 | 46 | 0 | 0.0 | 5.0 | 0.00 | 0.60 | 0.47 | 96 | 1010.4 |
| 20260506191557 | 46 | 0 | 0.0 | 5.0 | 0.00 | 0.60 | 0.47 | 96 | 1010.4 |
| 20260506191047 | 46 | 0 | 0.0 | 3.0 | 0.00 | 0.60 | 0.47 | 96 | 1010.2 |
| 20260506190549 | 46 | 0 | 0.0 | 2.0 | 0.00 | 0.60 | 0.47 | 96 | 1010.1 |
| 20260506190056 | 46 | 0 | 0.0 | 4.0 | 0.00 | 0.60 | 0.47 | 96 | 1010.0 |
| 20260506185546 | 46 | 0 | 0.0 | 4.0 | 0.00 | 0.61 | 0.47 | 96 | 1010.0 |
| 20260506185049 | 46 | 0 | 0.0 | 5.0 | 0.00 | 0.61 | 0.47 | 96 | 1010.0 |
| 20260506184604 | 46 | 0 | 0.0 | 5.0 | 0.00 | 0.61 | 0.47 | 96 | 1009.9 |
| 20260506184047 | 46 | 0 | 0.0 | 5.0 | 0.00 | 0.61 | 0.47 | 96 | 1009.9 |
| 20260506183546 | 46 | 0 | 0.0 | 6.0 | 0.00 | 0.61 | 0.47 | 96 | 1009.7 |
| 20260506183103 | 46 | 0 | 0.0 | 8.0 | 0.00 | 0.61 | 0.47 | 96 | 1009.7 |
| 20260506182545 | 46 | 338 | 0.0 | 8.0 | 0.00 | 0.61 | 0.47 | 96 | 1009.8 |
| 20260506182047 | 47 | 360 | 0.0 | 6.0 | 0.00 | 0.61 | 0.47 | 96 | 1009.7 |
| 20260506181559 | 47 | 0 | 0.0 | 6.0 | 0.00 | 0.61 | 0.47 | 96 | 1009.7 |
| 20260506181047 | 47 | 360 | 0.0 | 5.0 | 0.00 | 0.61 | 0.47 | 96 | 1009.7 |
| 20260506180544 | 47 | 0 | 0.0 | 4.0 | 0.00 | 0.60 | 0.46 | 96 | 1009.6 |
| 20260506180058 | 47 | 0 | 0.0 | 4.0 | 0.00 | 0.60 | 0.46 | 96 | 1009.4 |
| 20260506175545 | 47 | 0 | 0.0 | 3.0 | 0.00 | 0.60 | 0.46 | 96 | 1009.5 |